Terminal Aerodrome Forecast
Issued by NWS

Current Version | Previous Version | Text Only | Print | Product List | Glossary On
Versions: 1 2 3 4 5 6 7 8 9 10 11 12 13 14 15 16 17 18 19 20 21 22 23
000
FTUS41 KOKX 242000 AAA
TAFSWF
TAF AMD
KSWF 242030Z 2421/2524 04009KT P6SM BKN040
     FM242300 36006KT P6SM SCT050
     FM250100 VRB03KT P6SM BKN050
     FM251600 26006KT P6SM FEW050
      AMD NOT SKED=

USA.gov is the U.S. government's official web portal to all federal, state and local government web resources and services.